GW3580 Weather Reports


time (UTC)temp
C
wind
direction
speed
KPH
gust
KPH
rain 1hr
cm
rain 24hr
cm
rain mn
cm
humidity
%
barometer
mb
20260905194009 27 65 3.2 3.2 0.00 0.00 0.00 31 1013.2
20260905193504 27 265 1.6 3.2 0.00 0.00 0.00 31 1013.2
20260905192959 27 332 0.0 0.0 0.00 0.00 0.00 32 1013.2
20260905192454 26 77 3.2 3.2 0.00 0.00 0.00 32 1013.2
20260905191950 27 3 1.6 1.6 0.00 0.00 0.00 33 1013.3
20260905191444 26 68 0.0 1.6 0.00 0.00 0.00 31 1013.3
20260905190943 26 258 1.6 1.6 0.00 0.00 0.00 32 1013.5
20260905190441 25 253 1.6 1.6 0.00 0.00 0.00 33 1013.6
20260905185940 25 282 6.4 8.0 0.00 0.00 0.00 34 1013.5
20260905185435 25 134 1.6 1.6 0.00 0.00 0.00 33 1013.7
20260905184934 25 257 1.6 1.6 0.00 0.00 0.00 34 1013.8
20260905184429 25 309 4.8 6.4 0.00 0.00 0.00 35 1013.5
20260905183927 25 232 4.8 6.4 0.00 0.00 0.00 33 1013.7
20260905183422 25 213 1.6 1.6 0.00 0.00 0.00 34 1013.8
20260905182918 25 170 0.0 1.6 0.00 0.00 0.00 34 1013.5
20260905182416 25 98 1.6 1.6 0.00 0.00 0.00 34 1013.8
20260905181913 25 271 4.8 6.4 0.00 0.00 0.00 35 1013.9
20260905181412 24 272 4.8 6.4 0.00 0.00 0.00 36 1014.0
20260905180912 23 224 3.2 3.2 0.00 0.00 0.00 36 1013.9
20260905180406 23 257 4.8 6.4 0.00 0.00 0.00 36 1013.8
20260905175901 24 257 6.4 8.0 0.00 0.00 0.00 36 1014.1
20260905175400 23 304 1.6 1.6 0.00 0.00 0.00 37 1014.0
20260905174855 23 209 3.2 3.2 0.00 0.00 0.00 38 1013.7
20260905174352 23 293 0.0 0.0 0.00 0.00 0.00 38 1013.9
20260905173847 23 225 4.8 6.4 0.00 0.00 0.00 39 1013.9
20260905173343 23 47 1.6 1.6 0.00 0.00 0.00 38 1013.8
20260905172838 22 255 4.8 6.4 0.00 0.00 0.00 40 1013.7
20260905172336 22 298 1.6 3.2 0.00 0.00 0.00 40 1013.9
20260905171832 22 252 4.8 6.4 0.00 0.00 0.00 42 1013.8
20260905171329 22 241 1.6 6.4 0.00 0.00 0.00 41 1013.9
20260905170825 22 76 0.0 1.6 0.00 0.00 0.00 40 1013.9
20260905170320 22 256 4.8 6.4 0.00 0.00 0.00 41 1013.9
20260905165820 22 83 0.0 1.6 0.00 0.00 0.00 42 1013.8
20260905165315 21 79 1.6 1.6 0.00 0.00 0.00 45 1013.8
20260905164815 22 246 4.8 6.4 0.00 0.00 0.00 45 1013.9
20260905164310 21 67 1.6 1.6 0.00 0.00 0.00 45 1013.8
20260905163805 20 104 0.0 1.6 0.00 0.00 0.00 49 1014.0
20260905163301 20 0 3.2 3.2 0.00 0.00 0.00 49 1013.7
20260905162757 20 305 3.2 3.2 0.00 0.00 0.00 49 1013.8
20260905162257 20 221 3.2 6.4 0.00 0.00 0.00 49 1013.7
20260905161751 20 321 0.0 0.0 0.00 0.00 0.00 50 1013.8
20260905161250 20 300 1.6 1.6 0.00 0.00 0.00 50 1013.8
20260905160749 20 44 1.6 1.6 0.00 0.00 0.00 51 1013.5
20260905160243 19 50 0.0 0.0 0.00 0.00 0.00 52 1013.8
20260905155738 19 292 1.6 1.6 0.00 0.00 0.00 52 1013.8
20260905155237 19 55 0.0 1.6 0.00 0.00 0.00 51 1013.8
20260905154731 18 37 1.6 1.6 0.00 0.00 0.00 51 1013.5
20260905154227 19 63 1.6 1.6 0.00 0.00 0.00 52 1013.5
20260905153722 19 17 1.6 1.6 0.00 0.00 0.00 55 1013.3
20260905153219 18 323 0.0 0.0 0.00 0.00 0.00 56 1013.5
20260905152713 18 34 0.0 0.0 0.00 0.00 0.00 57 1013.4
20260905152207 17 248 0.0 1.6 0.00 0.00 0.00 58 1013.2
20260905151707 17 82 0.0 0.0 0.00 0.00 0.00 59 1013.3
20260905151203 17 111 0.0 0.0 0.00 0.00 0.00 62 1013.1
20260905150658 16 266 3.2 3.2 0.00 0.00 0.00 63 1013.1
20260905150156 16 240 3.2 3.2 0.00 0.00 0.00 65 1013.1
20260905145655 16 247 3.2 3.2 0.00 0.00 0.00 67 1012.9
20260905145154 16 249 4.8 6.4 0.00 0.00 0.00 66 1013.0
20260905144648 15 306 3.2 3.2 0.00 0.00 0.00 68 1012.9
20260905144143 15 240 1.6 1.6 0.00 0.00 0.00 69 1013.0
20260905143637 15 273 1.6 1.6 0.00 0.00 0.00 69 1012.8
20260905143132 15 259 1.6 3.2 0.00 0.00 0.00 69 1012.8
20260905142631 15 273 1.6 1.6 0.00 0.00 0.00 70 1012.9
20260905142131 15 248 3.2 3.2 0.00 0.00 0.00 70 1012.8
20260905141630 15 283 1.6 1.6 0.00 0.00 0.00 70 1012.9
20260905141127 15 264 3.2 3.2 0.00 0.00 0.00 70 1012.7
20260905140622 15 264 1.6 1.6 0.00 0.00 0.00 70 1012.7
20260905140121 15 280 3.2 3.2 0.00 0.00 0.00 69 1013.0
20260905135616 15 283 3.2 3.2 0.00 0.00 0.00 69 1012.6
20260905135112 15 301 3.2 3.2 0.00 0.00 0.00 69 1012.7
20260905134607 15 255 3.2 6.4 0.00 0.00 0.00 69 1012.6
20260905134105 15 276 3.2 3.2 0.00 0.00 0.00 68 1012.6
20260905133601 15 281 1.6 1.6 0.00 0.00 0.00 68 1012.7
20260905133101 15 295 3.2 3.2 0.00 0.00 0.00 68 1012.5
20260905132600 15 278 4.8 6.4 0.00 0.00 0.00 68 1012.3
20260905132055 15 271 1.6 1.6 0.00 0.00 0.00 67 1012.6
20260905131551 15 285 1.6 1.6 0.00 0.00 0.00 66 1012.5
20260905131046 15 276 4.8 6.4 0.00 0.00 0.00 65 1012.5
20260905130545 15 293 3.2 3.2 0.00 0.00 0.00 64 1012.5
20260905130040 15 291 1.6 1.6 0.00 0.00 0.00 63 1012.4
20260905125539 15 241 3.2 3.2 0.00 0.00 0.00 63 1012.3
20260905125035 15 285 3.2 3.2 0.00 0.00 0.00 63 1012.1
20260905124532 15 284 1.6 1.6 0.00 0.00 0.00 63 1012.2
20260905124028 15 278 3.2 3.2 0.00 0.00 0.00 63 1012.4
20260905123523 15 269 3.2 3.2 0.00 0.00 0.00 63 1012.4
20260905123019 15 256 3.2 3.2 0.00 0.00 0.00 63 1012.5
20260905122513 15 280 3.2 3.2 0.00 0.00 0.00 65 1012.5
20260905122009 15 303 0.0 0.0 0.00 0.00 0.00 66 1012.5
20260905121509 15 249 1.6 1.6 0.00 0.00 0.00 66 1012.4
20260905121003 15 66 0.0 0.0 0.00 0.00 0.00 66 1012.3
20260905120457 16 52 1.6 1.6 0.00 0.00 0.00 65 1012.2
20260905115952 16 246 1.6 1.6 0.00 0.00 0.00 65 1012.4
20260905115451 16 224 3.2 3.2 0.00 0.00 0.00 64 1012.4
20260905114946 16 315 1.6 1.6 0.00 0.00 0.00 64 1012.2
20260905114446 16 351 1.6 3.2 0.00 0.00 0.00 64 1012.3
20260905113944 16 263 3.2 3.2 0.00 0.00 0.00 65 1012.3
20260905113440 16 309 0.0 1.6 0.00 0.00 0.00 65 1012.2
20260905112935 16 240 3.2 3.2 0.00 0.00 0.00 65 1012.3
20260905112431 16 231 3.2 3.2 0.00 0.00 0.00 65 1012.4
20260905111926 16 157 0.0 1.6 0.00 0.00 0.00 65 1012.5
20260905111426 16 98 0.0 0.0 0.00 0.00 0.00 65 1012.2
20260905110920 16 288 0.0 1.6 0.00 0.00 0.00 66 1012.3
20260905110414 16 306 0.0 0.0 0.00 0.00 0.00 66 1012.3
20260905105908 16 44 0.0 0.0 0.00 0.00 0.00 66 1012.4
20260905105403 16 261 1.6 1.6 0.00 0.00 0.00 65 1012.3
20260905104903 16 278 3.2 3.2 0.00 0.00 0.00 65 1012.4
20260905104359 16 272 0.0 1.6 0.00 0.00 0.00 66 1012.4
20260905103858 16 348 0.0 1.6 0.00 0.00 0.00 65 1012.3
20260905103354 16 142 0.0 1.6 0.00 0.00 0.00 64 1012.1
20260905102850 16 287 1.6 1.6 0.00 0.00 0.00 64 1012.4
20260905102347 16 263 0.0 1.6 0.00 0.00 0.00 64 1012.4
20260905101846 17 240 3.2 3.2 0.00 0.00 0.00 63 1012.4
20260905101345 17 236 3.2 3.2 0.00 0.00 0.00 62 1012.6
20260905100839 17 249 1.6 1.6 0.00 0.00 0.00 62 1012.6
20260905100336 17 298 1.6 1.6 0.00 0.00 0.00 61 1012.6
20260905095834 17 258 3.2 3.2 0.00 0.00 0.00 61 1012.7
20260905095329 17 271 4.8 6.4 0.00 0.00 0.00 61 1012.5
20260905094824 17 267 4.8 6.4 0.00 0.00 0.00 60 1012.5
20260905094319 17 259 4.8 6.4 0.00 0.00 0.00 61 1012.4
20260905093818 17 269 3.2 3.2 0.00 0.00 0.00 60 1012.8
20260905093314 17 225 4.8 8.0 0.00 0.00 0.00 60 1012.6
20260905092810 17 291 3.2 3.2 0.00 0.00 0.00 60 1012.5
20260905092310 17 266 4.8 6.4 0.00 0.00 0.00 60 1012.6
20260905091805 17 238 3.2 3.2 0.00 0.00 0.00 59 1012.5
20260905091304 17 265 3.2 3.2 0.00 0.00 0.00 59 1012.5
20260905090803 17 256 3.2 3.2 0.00 0.00 0.00 58 1012.9
20260905090259 17 254 0.0 1.6 0.00 0.00 0.00 58 1012.6
20260905085758 17 247 3.2 3.2 0.00 0.00 0.00 58 1012.7
20260905085253 17 238 3.2 3.2 0.00 0.00 0.00 57 1012.8
20260905084748 18 244 1.6 1.6 0.00 0.00 0.00 56 1012.6
20260905084248 18 273 0.0 1.6 0.00 0.00 0.00 55 1012.9
20260905083743 18 277 3.2 3.2 0.00 0.00 0.00 54 1012.8
20260905083238 18 256 3.2 6.4 0.00 0.00 0.00 54 1013.0
20260905082734 18 288 8.0 9.7 0.00 0.00 0.00 53 1012.9
20260905082230 18 279 3.2 3.2 0.00 0.00 0.00 53 1012.9
20260905081729 18 273 1.6 1.6 0.00 0.00 0.00 52 1012.8
20260905081225 18 252 6.4 8.0 0.00 0.00 0.00 52 1012.8
20260905080719 18 269 3.2 3.2 0.00 0.00 0.00 51 1012.8
20260905080219 18 271 4.8 6.4 0.00 0.00 0.00 52 1012.7
20260905075718 18 228 6.4 6.4 0.00 0.00 0.00 52 1012.9
20260905075217 18 251 3.2 3.2 0.00 0.00 0.00 52 1012.8
20260905074716 19 286 3.2 3.2 0.00 0.00 0.00 51 1012.7
20260905074212 19 244 3.2 3.2 0.00 0.00 0.00 51 1012.8
20260905073708 19 247 3.2 6.4 0.00 0.00 0.00 50 1012.6
20260905073203 19 245 3.2 3.2 0.00 0.00 0.00 49 1012.6
20260905072702 19 293 6.4 8.0 0.00 0.00 0.00 49 1012.5
20260905072158 19 250 8.0 9.7 0.00 0.00 0.00 48 1012.7
20260905071654 20 255 1.6 1.6 0.00 0.00 0.00 48 1012.7
20260905071150 20 273 4.8 6.4 0.00 0.00 0.00 48 1012.5
20260905070644 20 279 4.8 6.4 0.00 0.00 0.00 47 1012.3
20260905070141 20 294 6.4 9.7 0.00 0.00 0.00 46 1012.4
20260905065639 20 248 4.8 8.0 0.00 0.00 0.00 46 1012.5
20260905065133 20 247 4.8 6.4 0.00 0.00 0.00 46 1012.2
20260905064629 20 271 1.6 3.2 0.00 0.00 0.00 46 1012.3
20260905064124 20 203 6.4 8.0 0.00 0.00 0.00 46 1012.3
20260905063623 20 232 1.6 3.2 0.00 0.00 0.00 47 1012.2
20260905063120 20 274 3.2 3.2 0.00 0.00 0.00 48 1012.5
20260905062615 20 249 3.2 3.2 0.00 0.00 0.00 47 1012.3
20260905062114 20 264 1.6 1.6 0.00 0.00 0.00 47 1012.0
20260905061609 20 242 4.8 8.0 0.00 0.00 0.00 47 1012.1
20260905061103 20 256 3.2 3.2 0.00 0.00 0.00 49 1012.1
20260905060559 20 224 3.2 3.2 0.00 0.00 0.00 50 1012.1
20260905060054 20 265 4.8 6.4 0.00 0.00 0.00 49 1011.9
20260905055553 20 192 1.6 1.6 0.00 0.00 0.00 50 1012.0
20260905055049 20 277 1.6 1.6 0.00 0.00 0.00 50 1012.1
20260905054543 20 279 1.6 1.6 0.00 0.00 0.00 49 1012.0
20260905054039 20 247 3.2 3.2 0.00 0.00 0.00 49 1012.0
20260905053533 20 231 3.2 3.2 0.00 0.00 0.00 49 1012.2
20260905053029 20 242 1.6 3.2 0.00 0.00 0.00 50 1011.9
20260905052527 20 266 1.6 1.6 0.00 0.00 0.00 50 1012.2
20260905052022 20 244 3.2 3.2 0.00 0.00 0.00 52 1012.1
20260905051518 20 227 0.0 1.6 0.00 0.00 0.00 52 1011.9
20260905051015 20 263 1.6 1.6 0.00 0.00 0.00 52 1011.9
20260905050510 20 249 1.6 1.6 0.00 0.00 0.00 53 1011.9
20260905050007 20 260 0.0 1.6 0.00 0.00 0.00 53 1012.3
20260905045501 20 42 0.0 1.6 0.00 0.00 0.00 53 1011.9
20260905044956 20 238 1.6 1.6 0.00 0.00 0.00 52 1012.0
20260905044451 21 152 0.0 0.0 0.00 0.00 0.00 52 1011.9
20260905043951 21 160 0.0 1.6 0.00 0.00 0.00 50 1011.8
20260905043450 21 307 0.0 0.0 0.00 0.00 0.00 48 1011.7
20260905042945 21 278 4.8 6.4 0.00 0.00 0.00 48 1011.8
20260905042445 21 246 3.2 3.2 0.00 0.00 0.00 52 1011.8
20260905041940 21 257 1.6 1.6 0.00 0.00 0.00 51 1011.8
20260905041436 21 35 0.0 0.0 0.00 0.00 0.00 50 1011.6
20260905040931 21 40 1.6 1.6 0.00 0.00 0.00 50 1011.6
20260905040430 21 42 0.0 0.0 0.00 0.00 0.00 51 1011.5
20260905035930 21 35 0.0 0.0 0.00 0.00 0.00 50 1011.4
20260905035425 21 35 0.0 0.0 0.00 0.00 0.00 50 1011.3
20260905034922 21 22 0.0 0.0 0.00 0.00 0.00 48 1011.5
20260905034416 21 273 0.0 0.0 0.00 0.00 0.00 49 1011.2
20260905033916 22 14 0.0 0.0 0.00 0.00 0.00 49 1011.1
20260905033411 22 268 0.0 0.0 0.00 0.00 0.00 50 1011.3
20260905032910 22 14 0.0 1.6 0.00 0.00 0.00 51 1011.1
20260905032406 22 17 0.0 0.0 0.00 0.00 0.00 50 1011.1
20260905031901 22 17 0.0 0.0 0.00 0.00 0.00 49 1011.0
20260905031357 22 280 0.0 0.0 0.00 0.00 0.00 48 1010.9
20260905030852 22 269 3.2 3.2 0.00 0.00 0.00 49 1011.0
20260905030348 23 155 1.6 1.6 0.00 0.00 0.00 49 1010.9
20260905025846 23 225 0.0 0.0 0.00 0.00 0.00 49 1010.9
20260905025342 23 269 0.0 0.0 0.00 0.00 0.00 49 1011.0
20260905024839 23 269 1.6 1.6 0.00 0.00 0.00 48 1011.0
20260905024333 23 268 0.0 0.0 0.00 0.00 0.00 47 1010.8
20260905023829 23 266 0.0 1.6 0.00 0.00 0.00 46 1010.6
20260905023324 24 256 0.0 0.0 0.00 0.00 0.00 45 1010.8
20260905022822 24 264 0.0 0.0 0.00 0.00 0.00 44 1010.9
20260905022318 25 237 1.6 1.6 0.00 0.00 0.00 43 1010.6
20260905021813 25 242 0.0 0.0 0.00 0.00 0.00 42 1010.6
20260905021308 25 261 1.6 1.6 0.00 0.00 0.00 41 1011.0
20260905020802 25 237 1.6 1.6 0.00 0.00 0.00 40 1010.5
20260905020257 26 269 4.8 6.4 0.00 0.00 0.00 39 1010.9
20260905015756 26 207 0.0 1.6 0.00 0.00 0.00 38 1010.6
20260905015250 26 85 0.0 0.0 0.00 0.00 0.00 37 1010.8
20260905014749 26 221 0.0 0.0 0.00 0.00 0.00 37 1010.9
20260905014245 27 235 1.6 3.2 0.00 0.00 0.00 36 1010.8
20260905013741 26 107 0.0 0.0 0.00 0.00 0.00 35 1010.6
20260905013236 27 101 1.6 1.6 0.00 0.00 0.00 35 1010.6
20260905012731 27 36 1.6 1.6 0.00 0.00 0.00 34 1010.8
20260905012227 27 248 3.2 3.2 0.00 0.00 0.00 34 1010.8
20260905011724 27 308 6.4 8.0 0.00 0.00 0.00 33 1010.6
20260905011214 27 238 4.8 8.0 0.00 0.00 0.00 34 1010.6
20260905010714 27 61 3.2 3.2 0.00 0.00 0.00 33 1010.6
20260905010209 27 234 3.2 3.2 0.00 0.00 0.00 33 1010.6
20260905005705 27 267 3.2 3.2 0.00 0.00 0.00 34 1010.6
20260905005201 27 284 3.2 3.2 0.00 0.00 0.00 34 1010.6
20260905004655 27 257 6.4 8.0 0.00 0.00 0.00 35 1010.8
20260905004150 27 222 6.4 9.7 0.00 0.00 0.00 33 1010.5
20260905003646 28 257 8.0 9.7 0.00 0.00 0.00 34 1010.9
20260905003142 27 262 1.6 3.2 0.00 0.00 0.00 35 1010.8
20260905002637 27 257 1.6 3.2 0.00 0.00 0.00 35 1010.5
20260905002131 28 273 9.7 11.3 0.00 0.00 0.00 34 1010.8
20260905001627 28 249 3.2 8.0 0.00 0.00 0.00 34 1010.5
20260905001126 28 224 4.8 6.4 0.00 0.00 0.00 34 1010.6
20260905000621 28 288 6.4 8.0 0.00 0.00 0.00 34 1010.6
20260905000117 28 243 1.6 1.6 0.00 0.00 0.00 35 1010.5
20260904235617 28 274 6.4 8.0 0.00 0.00 0.00 34 1010.5
20260904235116 28 284 6.4 8.0 0.00 0.00 0.00 34 1010.6
20260904234612 27 254 6.4 8.0 0.00 0.00 0.00 33 1010.9
20260904234107 28 245 4.8 6.4 0.00 0.00 0.00 34 1010.9
20260904233603 28 2 3.2 3.2 0.00 0.00 0.00 34 1010.8
20260904233058 27 273 11.3 12.9 0.00 0.00 0.00 35 1011.0
20260904232555 28 232 6.4 9.7 0.00 0.00 0.00 35 1011.0
20260904232051 28 350 1.6 1.6 0.00 0.00 0.00 36 1011.0
20260904231546 28 244 3.2 3.2 0.00 0.00 0.00 35 1011.0
20260904231041 28 240 3.2 3.2 0.00 0.00 0.00 35 1011.1
20260904230540 28 314 1.6 1.6 0.00 0.00 0.00 35 1011.1
20260904230036 28 54 3.2 3.2 0.00 0.00 0.00 35 1011.2
20260904225534 27 67 4.8 6.4 0.00 0.00 0.00 36 1011.1
20260904225033 28 57 1.6 1.6 0.00 0.00 0.00 34 1011.4
20260904224529 27 229 3.2 3.2 0.00 0.00 0.00 35 1011.2
20260904224028 28 253 6.4 8.0 0.00 0.00 0.00 36 1011.4
20260904223527 27 271 1.6 1.6 0.00 0.00 0.00 36 1011.4
20260904223024 28 225 3.2 6.4 0.00 0.00 0.00 36 1011.6
20260904222519 28 271 6.4 8.0 0.00 0.00 0.00 35 1011.5
20260904222014 28 313 1.6 1.6 0.00 0.00 0.00 35 1011.6
20260904221508 28 58 3.2 3.2 0.00 0.00 0.00 36 1011.7
20260904221003 28 352 3.2 3.2 0.00 0.00 0.00 37 1011.9
20260904220503 27 213 4.8 6.4 0.00 0.00 0.00 36 1011.8
20260904215958 28 304 4.8 6.4 0.00 0.00 0.00 37 1011.8
20260904215453 28 277 1.6 3.2 0.00 0.00 0.00 37 1012.0
20260904214948 28 28 1.6 1.6 0.00 0.00 0.00 37 1012.0
20260904214444 27 309 1.6 1.6 0.00 0.00 0.00 39 1012.0
20260904213939 27 14 3.2 3.2 0.00 0.00 0.00 39 1012.0
20260904213432 27 265 3.2 3.2 0.00 0.00 0.00 40 1012.0
20260904212929 27 219 1.6 1.6 0.00 0.00 0.00 40 1012.1
20260904212428 27 211 0.0 1.6 0.00 0.00 0.00 40 1012.1
20260904211924 27 62 4.8 6.4 0.00 0.00 0.00 40 1012.2
20260904211418 27 32 3.2 6.4 0.00 0.00 0.00 40 1012.1
20260904210914 26 262 0.0 0.0 0.00 0.00 0.00 40 1012.2
20260904210413 26 254 1.6 3.2 0.00 0.00 0.00 41 1012.4
20260904205909 26 244 6.4 8.0 0.00 0.00 0.00 41 1012.2
20260904205404 27 261 6.4 8.0 0.00 0.00 0.00 43 1012.4
20260904204901 26 63 1.6 1.6 0.00 0.00 0.00 42 1012.4
20260904204357 27 20 4.8 6.4 0.00 0.00 0.00 43 1012.6
20260904203853 26 323 4.8 6.4 0.00 0.00 0.00 43 1012.4
20260904203349 26 63 1.6 3.2 0.00 0.00 0.00 41 1012.8
20260904202844 26 245 6.4 8.0 0.00 0.00 0.00 43 1012.6
20260904202341 26 287 4.8 8.0 0.00 0.00 0.00 44 1012.6
20260904201836 25 338 3.2 3.2 0.00 0.00 0.00 44 1012.5
20260904201336 26 245 6.4 8.0 0.00 0.00 0.00 45 1012.6
20260904200831 26 352 0.0 0.0 0.00 0.00 0.00 44 1012.8
20260904200330 25 13 3.2 3.2 0.00 0.00 0.00 46 1012.5
20260904195825 25 257 1.6 1.6 0.00 0.00 0.00 47 1012.6
20260904195323 25 256 6.4 9.7 0.00 0.00 0.00 47 1012.7
20260904194818 25 253 1.6 3.2 0.00 0.00 0.00 46 1012.8